轨道通信卫星FM37星 (ORBCOMM FM37)

导读 | 星芒AI

ORBCOMM FM37 是一颗由 ORBCOMM 公司运营的低轨(LEO)物联网卫星,属于其第二代卫星星座(OG2)的一部分。该卫星运行在约 560 公里的近地轨道,主要用于提供全球范围内的机器对机器(M2M)通信服务,适用于物流、运输、资产跟踪和远程监控等领域。FM37 采用先进通信技术,具备高可靠性与低功耗特性,支持全球实时数据传输,增强了 ORBCOMM 在物联网通信市场的竞争力。

基本信息
目录编号:
33064
目录名称:
ORBCOMM FM 37
国际标识:
2008-031E
轨道中心:
EARTH
卫星名称:
轨道通信卫星FM37星
卫星全名:
轨道通信卫星FM37星 (ORBCOMM FM37)
卫星状态:
在轨 (已飞行6441 天)
发射日期:
2008-06-19 UTC
国别 :
(ORB)
星等 :
--
轨道信息
数据来源 国际轨道数据 AOE轨道数据
星历时间 2026-02-06T12:31:34+0800
9小时前
查看轨道信息
2026-02-01T22:00:00+0800
5天前
查看轨道信息
半长轴 7004.669km 7004.773km
偏心率 0.0005345 0.0005524
轨道倾角 48.440° 48.440°
近地点辐角 301.298° 283.371°
升交点赤经 310.316° 332.250°
平近点角 212.787° 139.634°
近地点 622.788km 622.766km
远地点 630.276km 630.506km
周期 97.239分钟 97.241分钟
每日圈数 14.808852 14.808522
详细信息
固有亮度:
8
最大亮度:
6.7
平衡模式:
三轴稳定
覆盖范围:
全球
运营商:
轨道通信公司
运营商所在国:
美国
使用方式:
暂无
卫星简介
轨道通信FM(Orbcomm FM)是一系列低地球轨道通信卫星,由美国卫星通信公司 Orbcomm运营。 截至2015年12月,已有63颗此类卫星绕地球运行。该卫星已退役。
2D轨道图
3D轨道图
轨道高度分析图
轨道倾角分析图
轨道综合分析图
查看轨道综合分析图